Location: Bouysse
(45.3674°N, 1.8947°E)
Time: 08:27:28
(UTC+00:00)

Cosmos 2154 Rocket - Pass Details

Date: 07 June 2020
Orbit: 966 x 996 km, 82.9° (Epoch: 15 July)

Event Time Altitude Azimuth Distance (km) Brightness Sun altitude
Exits shadow 01:49:52 22° 182° (S) 2,007 5.1 -16.7°
Maximum altitude 01:54:09 83° 97° (E) 988 4.0 -16.3°
Drops below altitude 10° 02:00:24 10° 10° (N) 2,724 7.5 -15.8°
Sets 02:02:54 0° 10° (N) 3,672 8.4 -15.6°
